Location: Monfort
(47.1967°N, 0.2115°W)
Time: 11:54:34
(UTC+00:00)

SL-4 R/B - Pass Details

Date: 24 October 2020
Orbit: 427 x 665 km, 51.6° (Epoch: 27 November)

Event Time Altitude Azimuth Distance (km) Brightness Sun altitude
Rises 17:59:26 0° 269° (W) 2,421 7.5 -11.3°
Reaches altitude 10° 18:01:34 10° 276° (W) 1,574 5.8 -11.6°
Maximum altitude 18:04:58 45° 350° (N) 645 2.4 -12.2°
Enters shadow 18:07:28 18° 58° (ENE) 1,251 3.3 -12.6°
